Wind_Speed
13 2 5 18 21 1 4 3 7 10 19 11 14 7 4 22 20 23 18 18 16 15 17 22 20 21 22 22 23 21 22 19 28 22 21 19 18 19 17 19 17 21 16 16
1 2 17 16 22 5 8 10 11 15 16 17 2 20 23 13 16 21 18 16 17 17 15 19 24 22 23 26 27 26 22 21 25 23 23 21 21 22 21 20 22 18 11 11
4 13 15 8 3 5 9 11 8 9 5 11 6 17 17 25 25 8 3 19 15 18 19 20 24 26 26 30 33 33 30 29 27 25 23 23 18 19 21 19 22 25 23 18
9 15 5 7 7 9 3 7 11 9 4 4 15 5 4 15 20 3 3 3 5 14 8 11 18 28 30 30 34 32 34 32 31 29 24 22 19 15 16 12 11 20 16 17
2 5 10 9 3 5 9 10 10 14 10 5 5 9 6 15 9 11 12 11 8 12 15 19 14 29 31 32 31 27 36 32 28 32 25 27 20 20 11 9 12 14 13 12
9 13 5 8 4 6 12 15 14 16 11 6 8 7 8 7 9 10 9 10 12 12 12 4 25 26 15 26 31 39 37 37 36 32 34 24 27 18 11 11 10 8 7 7
14 14 5 3 9 3 13 14 4 5 3 3 7 1 10 15 11 7 4 4 5 6 9 9 19 15 33 25 23 24 39 34 36 35 31 28 5 6 6 9 10 8 10 4
6 5 6 8 3 8 12 9 10 12 9 3 4 4 8 15 14 10 8 5 7 6 11 13 13 20 17 28 35 23 31 30 33 29 23 10 14 12 5 2 2 3 3 4
9 8 4 6 4 3 6 10 16 10 14 6 5 12 18 10 12 13 9 11 12 7 6 9 15 10 24 6 16 21 23 23 28 31 29 24 24 21 7 7 9 5 6 11
12 9 7 10 4 13 8 8 8 6 5 7 10 8 10 10 10 10 8 9 10 9 6 2 5 11 9 3 12 18 20 22 23 20 27 27 33 31 24 16 26 24 16 16
9 11 13 3 10 8 8 6 11 11 6 6 10 7 12 9 6 6 6 9 10 8 10 6 6 6 7 9 5 6 19 21 19 21 24 28 35 33 34 26 23 14 11 10
15 12 11 17 17 6 8 8 10 8 11 11 12 10 6 7 3 6 8 11 11 6 8 7 5 7 8 8 7 12 5 18 23 24 27 31 36 35 27 25 18 17 20 13
10 8 9 11 13 9 3 5 10 10 11 12 11 10 7 11 13 10 11 9 9 10 6 4 4 6 6 3 4 10 14 10 22 32 31 28 27 32 16 16 20 17 16 15
3 12 13 12 18 17 14 14 15 14 12 15 15 17 15 17 16 8 7 9 9 7 3 3 5 5 3 5 3 6 9 9 8 24 29 30 32 25 14 13 15 18 14 17
4 12 13 16 17 18 20 20 18 19 16 16 18 18 16 13 14 14 12 10 7 4 6 3 5 7 8 3 1 2 8 8 6 14 25 25 24 20 17 20 23 24 25 23
9 12 13 17 19 19 20 20 19 19 20 17 18 15 12 14 13 12 10 11 10 4 2 2 4 9 6 4 2 3 3 6 6 7 15 17 22 21 22 22 22 21 18 16
15 12 13 17 19 20 17 19 18 13 8 11 12 13 14 12 12 10 12 12 9 5 5 4 7 6 5 5 6 6 5 4 5 9 16 13 12 15 15 14 14 14 16 17
15 12 10 14 15 18 19 14 9 9 10 7 7 11 9 9 9 12 9 11 9 10 5 7 6 6 6 7 9 10 9 8 7 8 8 11 13 13 15 15 15 16 17 18
15 13 11 13 14 20 22 13 5 6 9 12 8 8 7 10 10 5 8 5 7 8 7 11 10 8 8 7 13 13 11 10 11 11 12 16 17 17 17 15 16 15 16 15
9 6 9 11 16 20 16 19 7 3 8 9 7 5 7 10 8 7 11 12 11 15 10 10 10 9 10 6 10 11 14 14 15 14 12 16 18 18 19 17 17 15 16 15
9 10 11 11 16 16 16 9 6 6 2 5 6 7 10 8 7 9 12 15 8 10 10 3 13 10 10 12 11 10 9 10 9 11 14 15 16 17 18 15 17 14 15 13
16 12 12 11 15 19 12 2 4 5 1 4 8 11 10 10 9 10 11 8 7 6 13 9 12 11 13 14 13 11 10 12 13 14 14 14 15 14 14 15 15 13 13 11
12 12 10 12 12 4 4 3 5 7 6 7 7 10 11 10 9 11 10 11 4 8 10 10 7 8 12 15 16 14 14 14 17 16 15 15 14 11 17 13 13 14 14 13
15 12 12 12 13 16 13 13 13 11 9 9 10 12 9 10 10 8 8 11 5 9 11 8 9 9 12 14 16 17 14 16 16 13 13 14 15 15 18 19 18 17 18 18
13 13 14 14 11 13 12 11 8 8 8 11 12 12 12 12 7 7 7 7 2 8 11 9 22 17 14 14 17 19 20 19 17 16 15 15 16 18 16 17 18 21 21 19
14 14 11 11 12 11 10 13 14 13 11 12 13 14 12 13 8 9 4 4 5 6 11 14 5 13 12 15 18 19 20 21 18 17 17 18 19 23 21 21 20 22 21 15
Wind_Direction
359 50 232 259 289 34 151 38 299 199 216 218 232 262 352 162 165 284 165 182 190 185 185 181 186 179 173 168 166 178 178 193 176 177 196 206 217 204 223 204 208 190 196 199
113 233 250 242 255 23 104 121 271 254 159 208 67 29 19 347 194 218 173 185 196 188 187 180 174 187 185 170 167 180 187 187 179 184 193 207 215 203 214 220 200 198 201 214
195 257 232 278 1 14 8 324 325 334 303 38 20 33 48 322 315 48 347 180 188 205 195 185 170 183 190 175 171 177 188 191 187 191 197 212 221 225 214 225 199 198 207 205
223 257 261 264 346 332 325 279 305 317 76 172 254 147 256 230 255 162 204 62 224 199 174 265 176 175 192 189 175 178 185 190 193 196 197 204 213 221 229 223 157 187 205 191
332 292 267 334 67 333 329 329 300 291 266 185 297 129 211 206 201 61 56 36 18 341 192 195 178 190 197 192 167 186 186 186 192 200 201 204 204 221 224 217 156 170 184 193
265 282 265 322 340 269 306 271 261 288 277 337 80 152 164 128 66 45 40 34 11 355 317 246 190 201 195 190 174 186 183 185 187 201 204 206 203 206 190 174 173 187 173 167
323 283 191 299 288 349 286 300 314 284 75 291 80 74 108 119 112 107 110 58 56 358 323 303 176 207 196 190 133 241 182 184 187 193 207 215 162 285 246 176 183 148 129 166
239 248 211 143 307 343 305 325 338 334 356 277 150 92 137 124 128 151 72 38 140 92 5 347 317 199 209 159 177 179 176 176 179 184 188 217 210 203 290 68 104 56 13 34
173 256 135 205 312 294 337 304 356 309 292 294 17 33 84 95 129 68 34 15 347 85 87 353 335 46 140 187 146 133 147 159 176 184 190 185 173 192 191 268 267 200 231 251
328 321 315 124 212 245 229 333 314 337 309 328 351 314 79 62 40 22 357 353 57 15 105 69 320 321 332 353 183 154 170 178 191 195 200 179 180 180 172 225 227 223 205 191
303 288 297 165 253 257 180 265 318 297 273 295 285 327 103 88 41 357 356 39 38 22 26 29 349 341 355 332 26 21 186 183 192 187 182 177 183 183 194 207 215 208 213 222
311 316 304 312 314 235 275 310 298 301 307 309 314 303 28 88 145 26 5 69 44 49 41 23 351 315 289 257 317 326 273 187 180 185 179 177 184 188 198 204 208 210 215 229
334 309 318 316 285 231 212 265 292 303 307 288 291 287 297 350 356 30 63 40 63 77 72 1 299 304 336 8 332 314 302 282 188 180 183 180 184 195 198 195 205 209 222 227
307 273 281 284 298 313 309 305 297 299 293 294 292 306 330 337 332 19 9 45 54 105 108 327 280 262 90 84 36 311 300 310 245 184 180 184 192 198 193 201 216 223 210 187
239 266 275 280 291 302 305 301 297 292 281 278 292 296 311 352 37 35 28 14 360 348 184 260 257 258 269 288 155 292 288 298 241 192 185 186 184 189 190 186 190 194 184 183
252 272 268 274 278 281 287 292 281 283 280 283 295 299 8 33 32 18 357 331 328 336 92 147 235 248 276 219 238 167 243 275 266 158 159 168 186 197 195 196 188 184 189 196
287 290 298 290 303 302 288 281 278 298 332 342 326 352 8 14 5 359 343 317 331 16 120 172 245 251 212 212 172 179 160 194 184 140 164 159 176 180 190 185 188 188 191 182
273 265 268 275 276 271 278 286 307 279 289 282 334 332 340 7 0 350 24 16 0 353 340 201 208 211 238 195 180 147 147 157 166 175 149 160 184 181 183 174 180 175 178 178
263 266 268 274 276 279 269 278 15 10 317 338 19 8 357 6 345 29 49 4 324 305 280 305 176 183 200 193 143 155 158 156 154 154 162 172 174 170 177 178 179 180 179 181
238 285 276 273 280 283 300 318 101 14 287 52 47 2 344 336 312 309 350 321 330 305 322 302 149 172 182 186 163 161 166 170 168 176 178 180 177 173 180 184 188 184 181 183
237 225 248 267 268 276 285 84 70 257 27 24 349 348 331 319 320 332 320 303 323 332 322 281 152 174 178 179 175 200 185 178 175 167 172 174 180 185 186 188 185 185 187 185
276 278 256 251 255 267 21 334 310 47 284 301 337 326 316 308 322 311 305 319 333 331 307 156 147 171 174 181 185 189 192 180 179 175 177 178 187 186 187 177 176 186 196 210
283 280 278 274 292 330 304 245 279 296 329 318 308 298 293 293 300 304 326 323 266 282 285 237 179 192 184 181 187 195 201 195 184 174 179 180 174 190 170 175 185 198 206 213
293 292 276 276 277 285 288 320 315 318 330 320 316 306 291 299 295 319 318 303 309 305 272 219 182 199 194 184 193 205 194 180 167 178 178 177 181 201 180 188 200 209 203 208
282 290 296 298 287 284 275 284 348 334 322 304 296 281 281 275 292 308 304 303 345 308 287 164 217 180 189 183 199 205 192 183 179 187 188 190 196 195 202 212 209 209 224 225
285 290 285 287 327 316 327 335 326 314 307 307 303 300 291 300 292 299 287 255 201 262 269 284 251 160 184 190 204 212 202 178 188 192 197 201 205 194 208 204 219 227 235 248
Height
770 780 788 759 747 737 764 770 772 750 744 752 744 733 730 742 748 755 725 736 738 741 743 750 759 766 772 778 784 790 794 799 801 807 812 814 814 816 816 817 817 818 822 825
770 783 753 747 740 735 748 763 762 736 724 739 737 760 745 737 727 717 721 729 731 732 733 740 750 758 766 772 779 786 791 796 799 803 806 810 811 812 813 813 814 816 819 822
790 765 735 733 736 743 747 751 746 743 724 728 736 785 765 752 733 712 712 719 724 727 724 723 731 748 756 762 768 775 783 788 792 798 802 805 807 808 809 809 809 810 813 817
773 746 737 737 746 738 760 731 731 733 747 786 741 821 793 772 760 726 722 719 717 721 722 732 723 731 741 749 762 775 779 780 786 793 798 800 801 803 805 806 805 807 811 812
756 749 743 747 742 733 742 723 731 726 731 739 739 766 767 753 747 732 724 720 717 715 718 722 728 729 733 740 757 766 778 778 783 787 791 795 797 800 803 804 806 807 808 808
746 726 729 730 726 724 721 728 724 719 728 773 741 749 764 749 744 738 731 729 727 723 718 714 721 722 735 743 744 759 767 770 773 781 782 788 791 796 799 802 804 808 808 808
780 750 720 723 737 728 728 732 768 765 769 785 729 739 744 731 731 734 735 732 730 727 723 717 725 722 725 733 739 762 756 764 770 771 779 781 793 799 802 802 805 807 810 811
802 780 731 717 733 746 739 736 760 787 777 763 719 756 742 712 715 717 719 720 721 724 725 721 716 720 724 722 748 745 751 759 762 766 769 777 786 793 802 805 804 806 807 811
793 785 716 715 718 725 739 753 726 752 732 750 735 728 719 711 716 722 722 721 722 721 726 731 725 724 737 743 748 744 750 757 760 763 769 776 779 791 796 803 808 805 805 805
734 761 719 720 716 715 732 724 758 746 782 789 756 751 753 737 732 727 726 724 725 725 727 732 734 733 734 737 742 743 750 757 761 766 769 774 780 783 790 794 792 793 797 801
729 742 742 719 730 733 735 742 737 734 747 779 782 756 718 728 725 726 721 720 725 727 729 733 736 738 741 743 746 748 750 754 760 763 768 774 776 778 781 787 793 797 801 800
728 741 758 742 711 704 718 737 739 764 770 750 755 758 701 712 713 714 716 722 726 727 735 739 743 744 745 746 749 750 752 752 753 759 763 770 776 778 783 789 789 795 798 804
735 749 766 753 723 709 730 729 730 731 734 760 773 759 697 701 706 708 718 721 725 733 740 744 747 748 749 750 753 755 754 752 752 751 760 768 776 779 780 784 786 790 794 799
739 750 765 779 757 735 744 732 726 733 756 752 745 736 719 713 713 713 715 719 725 732 740 743 748 750 752 754 755 758 756 753 752 756 759 760 768 773 777 781 784 789 791 797
738 764 753 745 737 734 736 736 731 738 734 750 739 737 723 717 720 720 720 722 726 728 733 738 744 749 750 753 757 757 757 755 756 750 728 758 766 768 773 778 781 784 787 791
726 755 746 753 736 732 737 726 723 723 721 721 722 729 707 712 717 726 727 726 727 726 728 737 744 748 747 752 756 757 757 756 755 755 753 757 765 768 774 776 779 783 786 791
735 742 754 767 744 744 757 732 720 714 710 719 740 727 715 724 728 728 727 726 725 727 730 737 741 741 746 748 752 756 759 758 758 758 760 754 767 772 775 778 780 781 786 789
734 741 746 763 754 785 731 698 702 715 715 714 720 722 721 725 723 723 723 727 728 727 727 729 733 738 744 747 750 753 756 758 760 761 759 760 767 772 778 778 782 782 786 787
713 730 748 762 760 742 727 707 718 727 730 713 722 723 723 724 726 731 729 731 731 729 728 728 731 737 742 746 750 752 755 758 761 762 763 766 769 770 775 777 780 783 784 787
711 716 741 751 770 777 731 704 701 710 747 718 723 728 730 730 748 736 727 725 726 726 724 726 730 736 741 745 748 753 755 757 759 762 765 767 769 769 774 777 779 782 784 786
730 735 749 749 754 739 709 704 704 752 751 722 722 725 729 736 734 728 726 724 723 724 724 724 729 733 737 742 746 750 753 755 758 761 763 766 768 771 772 775 778 781 783 785
732 736 737 733 746 756 707 708 734 728 717 717 721 723 725 724 724 725 723 720 721 722 723 721 723 728 733 738 742 747 750 753 756 759 761 764 766 770 772 774 777 780 781 783
731 717 730 728 726 705 702 709 705 706 712 714 717 718 719 719 721 721 721 720 718 719 718 719 727 733 730 734 740 744 747 750 753 756 758 761 764 768 770 774 776 778 780 782
708 698 714 717 708 704 701 702 703 704 708 709 711 712 713 718 716 717 719 719 716 716 716 725 725 729 735 731 738 742 746 748 751 755 758 760 763 766 768 771 774 775 776 778
711 707 713 713 706 703 703 702 704 707 708 711 711 710 710 710 712 713 715 715 716 716 716 722 722 727 728 728 735 739 742 746 749 753 756 758 761 763 765 767 768 769 769 770
706 711 718 719 706 710 710 706 706 708 710 710 711 710 707 707 708 708 712 713 717 718 717 716 715 717 720 725 732 737 740 742 747 750 752 754 754 755 758 760 761 762 764 765